Location: Unspecified
(0.0000°N, 0.0000°E)
Time: 06:15:17
(UTC+00:00)

Transit 2A - Pass Details

Date: 26 May 2019
Orbit: 598 x 960 km, 66.7° (Epoch: 15 September)

Event Time Altitude Azimuth Distance (km) Brightness Sun altitude
Rises 16:07:29 0° 9° (N) 3,226 9.4 25.4°
Reaches altitude 10° 16:10:50 10° 30° (NNE) 2,223 8.4 24.6°
Maximum altitude 16:13:54 16° 68° (ENE) 1,774 7.6 23.9°
Drops below altitude 10° 16:16:49 10° 106° (ESE) 2,096 7.8 23.3°
Sets 16:19:49 0° 127° (SE) 2,952 8.5 22.6°
